Regional Weather Roundup
Issued by NWS

Home | Current Version | Previous Version | Text Only | Print | Product List | Glossary On
Versions: 1 2 3 4 5 6 7 8 9 10 11 12 13 14 15 16 17 18 19 20 21 22 23 24 25 26 27 28 29 30 31 32 33 34 35 36 37 38 39 40 41 42 43 44 45 46 47 48 49 50
000
ASHW40 PHFO 171443
RWRHI

WEATHER ROUNDUP FOR HAWAII
NATIONAL WEATHER SERVICE HONOLULU HI
400 AM HST SUN DEC 17 2017

THIS IS AN AUTOMATED REPORT THAT HAS NOT BEEN QUALITY CONTROLLED.

NOTE..."FAIR" INDICATES FEW OR NO CLOUDS BELOW 12,000 FEET WITH NO
SIGNIFICANT WEATHER AND/OR OBSTRUCTIONS TO VISIBILITY.

* - THESE SITES REPORT LIMITED FIELDS
# - BUOY DATA PROVIDED BY PACIFIC ISLANDS OCEAN OBSERVING SYSTEM.

HIZ001>004-171500-
KAUAI-NIIHAU-

CITY           SKY/WX    TMP DP  RH WIND       PRES   REMARKS
LIHUE APT      PTCLDY    60  60 100 W6        29.85F
PORT ALLEN*      N/A     63 N/A N/A N8          N/A
POIPU*           N/A     59 N/A N/A N3          N/A
PRINCEVILLE*   NOT AVBL
KOKOLE POINT*  NOT AVBL
MOLOAA DAIRY*  NOT AVBL
WAIMEA HTS*      N/A     66  57  72 N6          N/A
PUU OPAE*        N/A     57  54  88 E3          N/A
PUU LUA*       NOT AVBL
MAKAHA RIDGE*    N/A     61  57  88 CALM        N/A
$$

HIZ005>011-171500-
OAHU-

CITY           SKY/WX    TMP DP  RH WIND       PRES   REMARKS
HONOLULU       MOCLDY    68  63  84 CALM      29.85F
KALAELOA       PTCLDY    65  64  97 NE5       29.86F
KANEOHE MCB    CLEAR     68  65  90 CALM      29.81F
WHEELER FIELD  NOT AVBL
BELLOWS*         N/A    N/A N/A N/A SW3         N/A
KAHUKU*          N/A    N/A N/A N/A E1          N/A
WHEELER*         N/A    N/A N/A N/A NE3         N/A
WAIANAE HARBOR   N/A    N/A N/A N/A E3          N/A
DILLINGHAM*    NOT AVBL
KAHUKU TRN*      N/A     77  73  88 CALM        N/A
KAWAILOA*        N/A     64  63  94 SW5G12      N/A
KII*             N/A     64  61  88 SE2         N/A
MAKUA RANGE*     N/A     66  55  68 VRB3G13     N/A
OAHU FOREST NW   N/A     64  61  88 SW6         N/A
SCHOFIELD BRK*   N/A    N/A N/A N/A MISG        N/A
SCHOFIELD S*   NOT AVBL
WAIANAE VLY*     N/A     64  63  94 NW3         N/A
KUAOKALA*        N/A     70  63  78 S13G18      N/A
HONOULIUULI*   NOT AVBL
MOKUOLOE IS*   NOT AVBL
PALEHUA*         N/A     61  61 100 S3          N/A
WAIAWA PHB*    NOT AVBL
$$

HIZ012>013-171500-
MOLOKAI-

CITY           SKY/WX    TMP DP  RH WIND       PRES   REMARKS
MOLOKAI AIRPT  PTCLDY    62  61  96 CALM      29.87S
KALAUPAPA      NOT AVBL
MAKAPULAPAI*     N/A    N/A N/A N/A S3          N/A
MOLOKAI 1*       N/A    N/A N/A N/A SE2         N/A
PUU ALII*        N/A     50  49  97 E2G9        N/A
$$

HIZ016-171500-
KAHOOLAWE-

CITY           SKY/WX    TMP DP  RH WIND       PRES   REMARKS
KAHOOLAWE*     NOT AVBL
HAKIOAWA*        N/A     65  62  91 MISG      30.28S
HONOKANAIA*    NOT AVBL
KANELOA*         N/A     66  63  88 SW1       29.93F
KEALIALALO*    NOT AVBL
LUA MAKIKA*    NOT AVBL
$$

HIZ014>015-171500-
LANAI-

CITY           SKY/WX    TMP DP  RH WIND       PRES   REMARKS
LANAI CITY     FAIR      61  60  97 E3        29.91S
LANAI 1*       NOT AVBL
$$

HIZ017>028-171500-
MAUI-

CITY           SKY/WX    TMP DP  RH WIND       PRES   REMARKS
KAHULUI        MOCLDY    61  61 100 S3        29.86S
KAPALUA-W MAUI NOT AVBL
HANA AIRPORT   CLEAR     61  61 100 CALM      29.89S
HANA*            N/A     63 N/A N/A S3          N/A
HALEAKALA SUMM   N/A     36  36 100 S8          N/A  WCI  29
MAALAEA BAY*     N/A     63 N/A N/A NE2         N/A
HALEAKALA*     NOT AVBL
KAUPO GAP*     NOT AVBL
KULA 1*          N/A     48  45  87 SE18G30     N/A
$$

HIZ023>026-171500-
BIG ISLAND OF HAWAII COAST AND LOWER SLOPES-

CITY           SKY/WX    TMP DP  RH WIND       PRES   REMARKS
KAILUA KONA    MOCLDY    69  61  75 E3        29.85S
HILO           CLOUDY    65  62  90 SW3       29.86S
HONOKAA*         N/A     59 N/A N/A VRB1        N/A
KAWAIHAE MWT*    N/A     73 N/A N/A S1          N/A
KAWAIHAE*        N/A     73 N/A N/A NE1       29.86R
SOUTH POINT*     N/A     64 N/A N/A W7          N/A
UPOLU AIRPORT* NOT AVBL
KAMUELA*       NOT AVBL
HAKALAU*         N/A     45  37  76 SW3G12      N/A
KALOKO-HONOKO*   N/A     66  61  82 NE3       29.84S
PALI 2*          N/A     61  57  88 NE2         N/A
KEALAKOMO*       N/A     72  66  83 NE3         N/A
KAUPULEHU*       N/A     66  61  82 SE3         N/A
KAPAPALA*        N/A     57  56  98 N3          N/A
LOWER KAHUKU*    N/A     55  55 100 N2          N/A
PUHE CS*         N/A     72  59  64 E2          N/A
PUHO CS*         N/A     65  60  83 E3          N/A
PTA KEAMUKU*     N/A     55  55 100 SW5         N/A
WAIKOLOA*        N/A     63  59  88 E3          N/A
$$

HIZ027>028-171500-
BIG ISLAND OF HAWAII INTERIOR AND SUMMMITS-

CITY           SKY/WX    TMP DP  RH WIND       PRES   REMARKS
BRADSHAW FIELD CLEAR     55  40  55 W12G20    30.17R
MK VISITOR CEN   N/A     45  23  42 VRB29       N/A
MAUNA KEA*       N/A     23   7  50 SW62        N/A  WCI   0
MAUNA LOA*       N/A     39   3  22 MISG        N/A
MAUNA LOA 1*   NOT AVBL
PTA KIPUKA*      N/A     52  45  76 N7G14       N/A
PTA RANGE 17*    N/A     54  43  66 NW2G9       N/A
PTA WEST*        N/A     64  57  77 SE10        N/A
NENE CABIN*      N/A     48  43  81 NW8G14      N/A
AHUMOA*          N/A     53  45  74 S23G36      N/A
PTA PORTABLE*  NOT AVBL
PUU MALI*        N/A     52 N/A N/A E5G10       N/A
$$

HIC003-171500-
NORTHWEST ISLANDS-

CITY           SKY/WX    TMP DP  RH WIND       PRES   REMARKS
MIDWAY ISLAND  CLOUDY    66  57  72 NE21G35   30.21F
MIDWAY NOS*      N/A     66 N/A N/A MISG      30.17F
FRENCH FRIGATE NOT AVBL
$$

PHZ110>124-180-171500-
BUOY REPORTS

STATION/POSITION TIME  TEMP    WIND        PRES    WAVE   SWELL
                       AIR SEA DIR/SP/G            HT/PER HT/DIR
                 (UTC) (F)     (DEG/KT/KT) (MB)    (FT/S) (FT/D)
BUOY 51001       1420   73 76   50/  8/ 12 1010.9
BUOY 51101       1350   72 74   20/ 12/ 14 1011.2F   9/10   8/ 70
BUOY 51100       NOT AVBL
BUOY 51002       1420   76 78   70/  8/ 12 1010.1
BUOY 51003       1350   74 77  200/  4/  8 1010.4F   6/ 9   7/ 40
BUOY 51004       1420   77 78  120/  8/ 12 1010.7
WAIMEA BAY#      NOT AVBL
MOKAPU POINT#    1404      76                N/A     8/10   3/ 30
LANAI#           NOT AVBL
BARBERS PT 2#    NOT AVBL
PAUWELA#         1430      77                N/A     9/11   5/ 40
HILO#            1427      76                N/A    10/11   5/ 70
KANEOHE BAY#     NOT AVBL
KANEOHE BAY 2#   NOT AVBL
HANALEI#         1422      76                N/A     7/10   3/ 50
KAHULUI HARBOR   1418   67 75  260/  1/  3 1010.9
HONOLULU HARBOR  1418   70 77  110/  2/  3 1011.4
PEARL HARBOR#    1400      78                N/A     2/ 9
KILO NALU        NOT AVBL
HILO HARBOR      1418   66 77  160/  4/  5 1010.9
MOKUOLOE         1336   70 73  170/  3/  5 1010.5F
NAWILIWILI       1418   61     280/  6/  7 1010.5
WHOTS BUOY       NOT AVBL
BUOY 51028       NOT AVBL
$$

......................KEY........................................
  SKY/WX - SKY CONDITIONS/PRESENT WEATHER
  TMP    - TEMPERATURE IN FAHRENHEIT
  DWPT   - DEWPOINT IN FAHRENHEIT
  RH     - RELATIVE HUMIDITY IN PERCENT
  WIND   - DIRECTION AND SPEED /MPH FOR ISLANDS...KTS FOR BUOYS/
  PRES   - MEAN SEA LEVEL PRESSURE IN INCHES OF HG
  VSB    - VISIBILITY IN MILES
  HX     - HEAT INDEX
  WCI    - WIND CHILL INDEX
  VRB    - VARIABLE WIND DIRECTION
  N/A    - NOT AVAILABLE




USA.gov is the U.S. government's official web portal to all federal, state and local government web resources and services.